User: anonymous   Login
Location: Brno
(49.2000°N, 16.6330°E)
Time: 09:31:30
(UTC+01:00)
Language:

Meteor 1-4 Rocket - Orbit

View from above orbital plane
View from above orbital plane
View from above satellite
View from above satellite

Ground track
Ground track

The orbit data is extracted from the following two-line orbital elements,

1 04394U 70037B   14298.80329982  .00012196  00000-0  52423-3 0  7134
2 04394 081.2465 064.3736 0047296 168.5563 191.6757 15.21505018417566
Epoch (UTC): 25 October 2014 19:16:45
Eccentricity: 0.0047296
inclination: 81.2465°
perigee height: 469 km
apogee height: 534 km
right ascension of ascending node: 64.3736°
argument of perigee: 168.5563°
revolutions per day: 15.21505018
mean anomaly at epoch: 191.6757°
orbit number at epoch: 41756

The dashed part of the orbit path shows where the satellite is in the earth's shadow,  

DLR